Theta_e
357 356 358 355 356 354 346 341 319 326 325 317 317 319 318 328 330 326 326 331 327 334 336 336 335 332 328 327 329 333 334 329 331 321 321 337 351 352 353 353 354 356 356 358 359 359 360 358 359 364 365 364 363 364 364 366 366 365 365 366 367 367 367 367 366 366 367 366 367 366 366 366 366 366 365 365 365 364 363 363 363 363 362 361 361 361 361 361 360 361 362 362 361 361 361 361 361
356 357 358 357 353 349 334 342 324 322 320 317 318 321 322 328 327 324 324 328 330 333 337 336 335 337 337 336 336 335 333 335 336 334 339 346 349 351 354 354 355 354 355 358 358 358 359 360 362 363 364 365 364 365 365 366 365 365 365 366 367 367 367 366 367 366 366 366 366 366 366 366 366 366 365 365 364 363 363 363 363 362 362 362 363 362 361 360 360 360 361 361 361 361 362 362 362
355 357 356 357 351 346 341 337 318 317 315 312 316 320 327 323 323 325 327 329 334 337 337 336 337 336 335 335 330 332 327 338 338 339 340 347 343 347 353 355 356 356 356 358 359 359 361 363 363 363 363 365 365 365 366 366 365 365 366 367 367 367 366 367 367 367 366 366 366 366 366 367 366 365 365 364 363 363 363 362 362 362 362 362 362 363 362 361 360 361 360 361 361 361 361 361 361
358 358 352 350 337 343 331 327 321 317 315 315 316 322 324 324 325 328 331 334 336 337 336 333 331 338 333 328 333 337 334 334 339 340 338 342 345 350 354 355 358 357 358 358 359 360 361 363 363 364 363 365 365 365 365 364 365 366 366 366 365 365 366 367 367 366 366 366 366 366 367 366 365 365 364 364 363 362 363 363 362 362 363 362 362 361 360 361 361 361 361 361 361 361 360 361 360
357 357 355 347 340 329 328 323 320 320 314 316 315 322 324 327 329 331 333 336 337 337 335 334 332 338 339 335 336 331 333 339 339 344 342 347 353 352 355 356 356 356 357 359 360 360 361 363 364 364 363 364 365 364 363 363 366 366 366 366 366 367 367 367 366 366 366 366 367 367 367 366 365 364 364 363 363 362 363 362 362 362 362 361 361 361 361 361 361 360 361 360 361 361 361 361 361
356 354 355 351 334 341 331 321 320 318 322 323 320 322 326 329 330 332 333 336 337 338 337 334 332 332 333 335 339 333 339 332 340 343 345 347 352 353 355 357 354 355 357 358 360 360 361 363 364 363 363 363 363 363 361 364 366 366 366 366 367 367 366 366 366 367 367 366 366 367 366 365 364 363 363 362 362 362 363 362 362 362 363 361 361 361 361 361 361 361 362 361 360 361 361 361 361
349 348 347 345 341 340 322 319 319 320 324 326 324 324 327 330 333 333 332 333 336 336 338 335 337 335 330 335 339 341 346 344 342 343 348 351 353 354 356 355 354 354 357 359 360 361 361 363 364 365 363 364 364 364 365 366 365 366 367 367 366 367 366 366 367 367 366 366 366 366 365 365 364 363 363 363 363 363 363 362 362 362 362 362 361 361 362 362 361 362 361 361 361 360 359 359 361
356 342 340 330 326 328 320 319 320 323 323 327 328 326 329 332 334 333 332 331 330 331 334 337 337 335 332 339 330 342 346 346 346 350 351 352 353 354 355 354 353 354 356 359 361 361 363 363 364 364 363 364 365 364 364 366 365 367 367 367 366 367 367 367 367 366 366 366 366 366 365 365 364 364 363 364 363 363 362 362 362 362 362 363 363 363 363 362 362 361 361 361 361 361 360 359 360
349 341 344 332 323 324 321 320 321 327 326 329 329 330 333 334 334 333 331 333 333 334 334 335 337 330 331 334 334 341 345 348 350 352 352 352 352 353 353 353 352 353 356 359 360 361 361 363 363 363 363 364 364 364 365 366 366 367 367 366 367 366 367 367 366 367 366 366 365 365 365 365 364 364 364 363 362 362 362 362 362 361 362 363 363 362 361 363 361 361 361 361 361 360 360 359 359
343 341 329 328 325 319 319 320 318 322 325 328 329 329 332 334 333 334 332 331 332 334 335 338 336 332 334 330 334 339 342 349 350 349 351 352 353 354 353 354 354 353 355 358 360 360 362 363 363 363 363 364 364 365 366 367 367 366 366 367 367 367 367 367 366 366 366 366 366 365 364 364 364 364 364 363 363 362 362 361 361 361 361 362 362 362 363 362 361 361 361 361 361 361 361 360 359
333 340 338 325 320 318 317 316 320 323 323 327 329 332 334 335 334 333 333 332 335 333 335 337 333 333 333 332 336 347 348 349 347 346 350 352 353 352 352 354 355 355 354 356 359 361 362 362 363 362 363 364 363 364 366 366 367 367 366 367 367 367 367 367 366 366 366 366 365 365 364 364 364 364 364 363 363 362 363 362 361 361 361 361 363 363 362 363 361 361 361 361 361 361 360 360 359
331 331 332 321 320 318 319 319 321 323 326 325 325 332 336 335 335 331 331 330 333 333 333 336 332 337 331 331 334 343 346 346 346 348 351 353 352 352 352 353 354 355 356 357 359 361 361 362 362 362 363 363 363 363 365 366 367 366 367 367 367 367 366 365 366 366 366 366 365 365 364 364 364 364 364 364 363 361 361 361 361 362 362 362 362 363 362 362 361 361 361 361 361 361 361 360 360
333 333 328 323 321 322 323 321 322 322 323 323 325 333 337 335 332 333 332 333 333 332 332 337 339 337 328 330 339 342 341 345 348 349 351 351 352 352 353 353 354 355 356 358 358 359 361 360 361 363 362 363 363 363 364 366 366 366 366 367 366 366 366 365 366 366 366 365 365 365 364 364 364 364 364 363 363 362 361 360 362 362 362 362 362 362 362 362 361 360 361 361 361 360 361 361 360
333 334 330 322 326 323 323 322 323 320 319 322 329 335 336 333 335 335 335 331 332 330 337 341 339 338 332 335 335 337 340 346 348 350 351 351 352 352 352 352 353 353 355 357 358 360 360 362 361 360 362 364 364 364 364 366 366 366 366 366 366 366 366 365 366 366 366 365 365 365 364 364 364 364 364 363 362 362 360 360 361 362 361 361 362 362 362 363 362 361 361 361 361 361 361 361 360
333 338 330 325 323 322 324 319 318 318 319 322 329 334 334 336 337 336 334 331 332 340 342 344 341 333 326 331 330 336 341 346 348 350 350 350 351 352 352 352 353 353 354 355 358 360 360 361 360 363 364 363 364 364 364 366 366 366 367 366 366 366 366 366 366 366 365 365 365 365 365 364 364 364 364 364 362 361 361 360 360 362 361 361 362 362 363 362 362 361 360 361 362 361 361 361 360
338 335 331 324 321 320 322 320 321 318 319 323 332 335 334 335 338 334 336 337 337 342 341 334 342 331 335 335 337 341 345 347 348 349 349 349 351 350 351 352 351 353 354 355 357 360 361 361 362 361 363 363 363 363 364 366 366 366 366 367 366 365 365 366 365 365 365 365 365 365 364 365 364 363 364 364 364 362 362 361 360 361 361 362 362 362 363 363 362 361 361 360 362 361 359 359 359
340 336 324 323 319 321 322 320 317 313 317 324 333 334 330 330 338 340 342 342 336 336 337 339 336 342 336 338 343 345 346 348 348 347 347 347 348 347 349 349 350 351 352 354 358 358 360 360 361 361 362 363 363 363 363 364 365 366 367 367 366 365 365 365 365 365 365 365 365 365 365 365 366 366 365 364 363 366 364 361 361 361 361 361 362 363 363 363 361 362 361 362 361 360 360 360 360
336 326 323 320 324 322 325 321 318 320 321 327 331 333 332 330 334 337 341 338 338 337 337 339 342 341 343 345 347 347 347 345 345 343 343 344 346 344 345 346 347 347 350 352 356 359 360 360 362 361 361 363 363 364 363 365 364 365 365 366 366 366 365 364 365 365 363 365 364 365 366 365 364 367 366 364 365 364 361 362 361 362 362 362 361 362 361 363 362 362 362 361 360 360 360 365 364
329 327 325 320 326 327 331 328 328 324 324 328 332 334 333 332 335 338 333 333 334 333 335 337 338 341 344 346 345 345 345 344 343 342 342 343 343 342 343 344 346 347 348 351 354 356 359 360 361 361 362 363 363 364 363 364 364 365 365 365 365 365 365 365 365 365 366 365 365 364 365 364 365 367 367 365 365 363 362 364 363 363 364 363 364 365 363 363 363 361 362 361 360 359 363 365 365
334 329 323 325 331 332 332 330 330 332 330 326 331 333 333 335 336 339 332 333 334 331 332 335 335 336 340 342 344 343 343 342 343 342 342 342 343 343 343 343 344 346 348 350 352 356 358 358 360 361 362 363 362 362 362 362 363 365 363 364 364 365 365 365 365 365 365 365 365 365 363 366 366 367 364 364 365 365 363 363 364 365 364 364 365 363 362 364 364 362 363 362 358 362 365 366 362
335 331 325 329 330 330 333 333 331 329 326 326 331 333 332 335 337 336 334 331 331 333 337 336 335 337 339 341 342 342 341 340 341 341 342 343 343 344 344 344 344 346 349 351 353 355 357 359 360 361 363 363 363 361 361 361 363 363 363 363 363 363 364 364 364 365 365 365 365 364 363 364 363 364 365 364 362 363 362 363 364 365 366 365 364 364 364 364 363 365 364 363 365 364 362 361 362
336 331 334 333 332 328 331 334 334 327 330 331 332 330 330 338 337 335 335 329 329 334 338 339 340 341 340 340 341 341 340 339 340 341 341 342 342 344 345 346 348 349 351 348 351 354 356 358 360 360 361 362 362 361 361 361 363 362 362 362 363 364 364 364 364 364 364 365 364 363 364 364 363 363 364 363 362 363 361 362 364 365 366 365 367 365 364 365 363 363 363 362 360 361 356 357 364
326 332 335 336 336 333 337 333 331 330 330 330 330 333 336 334 333 336 335 332 334 338 341 341 343 343 343 343 342 340 340 339 340 340 342 342 343 344 344 345 346 346 349 350 352 354 356 357 360 360 360 361 361 363 361 362 361 362 363 362 362 362 364 363 362 362 364 366 365 366 361 360 361 360 361 362 361 363 362 363 363 365 366 364 366 364 364 364 363 362 364 364 363 359 356 356 359
332 328 332 332 336 334 336 335 334 328 328 328 333 336 332 333 329 336 334 336 337 339 341 342 344 345 344 342 341 340 340 340 340 342 344 344 344 344 345 345 347 349 350 350 352 353 356 355 359 360 360 360 361 362 362 360 361 360 361 363 362 361 362 361 361 362 364 364 365 365 364 363 360 359 361 361 361 363 362 365 366 364 365 364 367 366 362 363 364 364 365 364 361 360 357 358 359
331 329 333 333 333 332 333 332 330 330 328 330 334 331 331 334 332 335 333 338 337 339 342 343 344 344 343 342 341 341 341 341 341 343 345 346 346 347 347 348 348 349 348 349 351 352 355 356 358 358 360 360 360 360 360 360 361 360 360 360 361 361 361 361 362 364 363 364 364 365 366 361 360 360 360 360 362 363 364 365 364 363 365 364 366 363 364 363 362 362 363 362 361 360 358 357 358
332 332 334 332 330 331 330 329 329 328 327 328 329 329 332 335 336 332 335 338 339 341 341 342 343 342 341 341 341 341 340 340 341 342 344 345 346 346 346 347 347 346 349 351 351 353 355 356 356 357 358 359 360 359 359 359 360 359 360 361 361 363 361 361 363 361 363 363 363 365 363 362 360 359 360 362 362 362 363 365 365 364 364 365 364 364 363 362 360 360 361 361 359 359 358 359 358
330 329 330 329 329 329 330 328 328 328 327 327 324 325 329 335 332 326 336 338 340 340 340 342 341 340 341 341 341 341 340 340 341 343 344 345 346 345 346 346 347 348 349 349 350 352 354 356 356 358 359 361 359 357 358 359 360 359 360 361 361 361 362 362 362 361 361 362 362 364 364 364 362 361 362 363 361 361 363 364 363 365 363 363 366 364 366 364 362 361 361 358 359 359 357 358 357
328 327 324 323 323 324 324 323 323 325 321 325 325 322 329 333 332 327 334 338 340 339 340 340 341 341 341 341 341 343 342 342 343 344 342 343 344 345 346 346 347 348 349 350 351 354 353 354 355 357 358 359 359 357 359 358 359 359 361 360 360 362 363 361 360 361 361 362 363 364 364 363 364 363 364 364 363 361 361 362 363 365 363 365 366 364 364 365 362 362 364 364 362 361 359 358 358
325 322 314 317 317 315 316 314 315 317 315 320 324 321 322 327 325 332 336 338 339 338 339 340 340 341 341 342 341 342 341 343 343 343 344 345 347 347 347 349 348 348 350 351 352 353 352 354 354 356 358 358 359 357 357 358 359 359 359 359 360 361 361 361 359 360 361 362 363 364 364 364 365 364 364 365 365 362 362 364 363 365 366 367 367 367 366 366 363 362 363 364 362 362 358 357 357
319 318 315 313 313 313 316 316 314 313 314 321 323 309 315 323 328 333 337 337 338 338 338 339 340 340 341 341 341 342 343 343 342 344 346 347 348 348 348 349 350 349 350 353 354 352 353 354 355 355 356 357 358 358 358 357 358 358 359 359 360 360 358 358 358 360 361 361 363 364 365 365 365 366 366 366 365 362 364 365 365 364 366 368 367 368 364 364 361 361 361 359 357 358 356 356 352
313 315 314 310 309 310 311 312 313 311 318 322 321 308 312 322 327 333 337 338 336 335 337 338 339 340 340 340 341 341 343 345 344 345 346 348 349 349 349 350 351 350 351 351 352 354 354 354 355 353 356 356 357 358 357 357 358 357 357 358 358 359 358 358 358 360 361 363 365 364 366 367 368 368 367 366 366 364 362 363 364 364 367 368 364 366 364 363 362 361 361 358 358 358 356 355 352
312 310 308 310 307 310 312 314 313 312 317 322 319 310 312 317 324 333 337 338 336 335 337 338 338 339 339 340 340 341 342 344 345 346 347 348 349 349 349 350 351 351 351 352 353 354 354 355 357 354 355 355 357 357 358 358 358 358 358 359 359 360 357 358 359 361 363 363 363 364 367 367 367 368 368 367 364 365 363 362 363 367 368 366 366 366 365 361 362 362 363 361 357 356 357 353 351
306 306 307 308 306 308 311 310 310 312 315 319 318 310 313 314 321 333 337 337 336 335 336 337 337 338 339 339 340 341 342 343 345 345 347 348 349 350 351 352 351 352 352 353 353 354 355 355 356 355 354 355 355 356 358 359 359 358 358 358 358 359 358 359 362 363 361 361 362 360 365 366 367 367 368 368 365 365 364 365 364 367 368 365 365 366 362 362 363 360 363 362 361 358 356 351 348
302 307 306 309 308 309 308 312 312 312 313 311 318 313 313 315 322 333 335 336 335 334 336 337 337 338 339 340 340 340 341 342 342 345 346 348 349 350 351 352 353 353 353 353 354 354 354 355 355 355 356 356 356 357 357 357 358 359 358 357 360 358 359 359 360 361 360 359 363 361 365 366 366 367 367 368 366 366 366 365 365 367 366 365 365 364 363 364 363 362 361 363 361 360 355 351 348
299 302 304 306 306 306 308 307 309 310 314 310 311 313 313 315 324 331 334 336 335 334 335 336 337 337 338 339 340 340 341 341 343 346 347 349 349 350 351 353 352 353 353 353 354 355 355 355 356 356 357 357 356 357 359 358 358 359 358 358 358 358 359 360 360 360 360 361 360 363 366 365 366 367 367 368 367 365 366 366 366 367 366 365 365 364 363 363 362 362 361 361 361 360 357 353 349
301 304 305 308 307 309 308 308 309 309 308 308 308 308 310 313 321 328 333 335 334 334 337 337 337 337 338 338 339 340 341 341 345 347 348 349 350 350 351 352 353 353 353 353 354 354 355 356 357 358 358 357 358 357 357 356 356 355 353 355 355 355 357 358 361 359 361 361 362 364 366 366 366 367 368 369 369 367 366 366 367 367 366 365 364 361 361 362 362 362 361 358 358 359 359 354 350
308 307 307 307 308 308 307 307 309 311 307 308 308 309 309 311 316 326 331 334 334 334 334 335 336 337 337 338 339 340 341 341 345 347 348 348 349 350 351 352 352 353 354 354 353 353 354 355 356 355 357 359 357 355 355 354 353 353 355 353 352 354 356 357 358 360 360 360 363 364 366 365 366 367 368 369 368 368 367 367 367 366 366 365 364 362 363 362 364 362 359 361 358 355 353 353 350
307 306 306 305 305 305 308 308 309 310 308 309 311 309 310 312 315 325 331 332 331 331 333 334 336 337 337 338 338 340 342 344 345 346 347 348 348 350 350 351 352 350 352 353 352 352 354 354 355 356 358 359 358 357 357 356 357 354 353 353 353 355 356 355 357 360 361 362 365 365 366 365 367 367 368 369 369 368 368 367 367 366 366 365 365 366 365 364 364 361 360 358 358 352 349 348 348
305 304 305 306 307 310 310 311 312 311 308 308 309 306 308 310 311 322 330 331 332 333 333 334 336 336 337 337 339 340 341 341 343 344 346 347 348 349 349 350 351 352 352 352 353 353 354 354 356 358 358 358 358 359 358 357 358 359 357 357 356 356 359 360 359 361 363 362 363 365 366 366 367 367 368 368 368 368 368 367 366 366 367 366 365 364 364 363 363 361 359 355 351 353 350 349 349
303 303 302 301 306 306 305 305 306 307 307 306 308 306 307 312 319 319 328 331 333 335 335 335 337 337 337 337 339 339 340 341 341 343 344 345 347 348 349 349 351 351 352 353 353 353 353 354 356 358 359 359 359 359 359 360 360 362 362 362 361 360 359 361 363 363 363 362 360 363 366 366 367 366 367 367 368 368 368 367 367 366 367 367 365 363 363 362 363 360 359 356 353 347 346 347 349
304 303 302 302 304 306 307 308 306 307 308 307 307 306 307 310 310 317 326 331 333 334 334 335 337 338 339 340 340 341 340 341 341 342 344 345 346 347 348 350 351 350 351 352 353 353 353 354 356 358 359 359 360 360 360 361 361 360 359 361 361 360 360 359 358 357 360 361 360 362 363 366 366 366 367 367 367 368 369 368 367 367 367 367 366 364 363 361 362 361 360 357 353 348 344 345 349
303 305 304 304 306 306 305 304 304 305 306 309 306 301 303 313 314 315 327 327 329 333 333 333 335 336 337 337 338 340 341 343 343 342 343 344 346 347 349 350 349 350 351 353 354 354 355 356 357 358 359 360 360 361 361 360 358 357 355 352 349 350 351 352 352 354 355 357 356 359 364 364 364 365 366 367 367 367 369 369 369 368 367 367 366 364 364 363 363 360 359 357 354 352 349 344 341
301 303 307 307 307 307 306 305 305 303 301 306 307 301 299 310 308 314 321 325 327 331 331 332 334 335 335 336 337 338 339 340 343 344 344 344 345 346 347 349 349 350 351 354 355 355 357 357 358 359 359 360 361 361 360 360 358 358 356 353 353 352 351 354 358 359 358 359 361 361 363 364 365 364 365 367 367 369 369 370 369 368 368 367 367 365 363 361 359 360 360 357 355 353 349 343 341
300 307 307 307 306 306 306 306 306 305 309 308 306 306 300 300 307 312 319 323 325 328 330 331 332 335 334 336 337 339 339 340 341 342 343 344 346 346 346 348 349 349 352 353 354 355 357 358 359 359 359 360 360 360 360 360 358 357 357 356 355 355 353 356 359 359 361 362 360 361 362 363 365 365 365 367 368 369 370 370 370 369 367 366 365 364 363 362 361 361 361 359 357 354 349 344 340
303 306 308 306 306 307 307 307 306 306 304 300 305 306 300 300 308 315 319 315 322 325 328 330 332 333 334 336 337 338 339 341 341 341 342 344 344 346 347 348 350 350 351 352 353 355 357 359 359 360 359 360 360 361 360 359 360 359 358 357 356 356 357 358 360 359 359 360 359 361 363 363 366 367 366 367 368 368 369 369 370 368 367 366 365 364 363 362 362 361 359 355 353 352 351 348 345
306 306 309 308 308 307 307 306 304 303 299 297 302 304 298 299 306 307 319 314 315 322 327 329 332 333 334 335 336 338 340 341 342 342 343 344 345 346 348 349 350 350 351 354 354 355 356 358 358 359 358 359 360 360 360 360 360 360 358 357 356 356 357 358 358 357 358 359 358 360 362 363 363 364 366 367 368 368 369 369 368 367 367 365 364 364 364 363 362 361 360 357 354 351 352 350 346
308 307 305 304 304 304 305 305 304 301 295 298 302 303 301 295 303 305 309 312 316 320 326 330 332 333 334 336 336 337 338 339 341 342 343 345 346 347 348 348 350 350 351 352 353 354 355 356 357 358 358 359 360 360 361 360 360 360 358 357 357 356 357 357 356 356 357 358 357 358 360 361 363 364 364 366 366 367 368 369 367 366 367 366 365 365 364 361 360 360 359 358 356 352 352 351 349
307 304 303 302 302 303 302 301 303 294 293 300 303 302 302 294 301 306 312 319 319 319 320 326 329 332 333 335 335 337 338 339 340 341 342 344 345 346 347 347 348 350 350 351 352 353 354 355 356 357 358 359 359 359 360 359 359 359 359 359 357 357 358 356 355 355 356 356 357 357 360 361 363 364 365 364 364 364 367 367 367 367 365 364 362 365 365 363 361 359 358 356 355 353 354 351 349
305 304 302 296 296 296 291 296 291 292 292 298 301 302 299 297 303 307 311 314 318 321 319 322 327 330 333 334 335 336 337 339 339 340 341 342 343 344 345 346 348 349 349 350 350 351 353 355 356 356 357 359 359 359 359 360 359 359 359 359 358 359 358 358 357 356 358 356 357 357 359 358 361 362 363 362 364 365 367 365 365 363 362 362 363 364 365 363 361 358 357 355 353 353 351 351 349
303 301 299 295 291 289 287 291 294 294 297 300 299 302 297 303 305 309 308 315 318 322 324 324 327 331 334 335 336 336 337 338 339 339 340 341 343 344 345 346 347 348 349 349 350 351 352 353 355 355 356 358 359 359 358 359 359 359 361 360 359 359 358 358 358 357 358 358 358 358 357 357 359 360 361 362 364 366 365 365 364 364 365 365 364 364 365 363 361 358 357 354 352 353 352 352 350
303 305 302 298 296 292 288 291 289 290 294 297 301 296 296 296 301 312 311 314 319 321 323 327 329 331 335 335 336 336 337 338 339 339 340 340 342 344 344 345 346 347 347 348 349 350 353 353 354 355 356 358 358 358 358 358 359 360 361 361 360 360 358 357 357 358 358 358 358 358 359 359 359 361 362 365 367 366 366 365 364 363 364 364 363 363 364 362 360 359 357 356 353 354 353 351 350
305 305 305 300 298 303 293 296 294 294 294 294 296 296 303 302 313 315 316 314 315 318 321 325 326 328 330 332 333 334 335 336 338 339 339 341 343 345 344 345 346 346 348 347 348 351 351 352 355 355 356 357 357 357 358 358 359 360 361 361 360 360 360 359 358 359 360 359 359 359 360 361 361 362 365 366 366 366 365 364 364 362 363 363 362 364 363 361 359 357 356 355 353 353 352 352 351
302 303 298 301 307 303 299 298 299 298 295 293 302 299 302 309 309 309 313 313 313 314 317 319 322 324 329 328 330 333 334 336 337 337 339 341 342 344 344 345 344 345 346 347 349 351 351 353 353 354 355 357 357 358 357 358 359 359 360 360 360 360 359 358 357 357 356 359 360 360 359 360 361 363 363 364 364 366 366 365 363 362 363 362 362 364 363 361 359 357 355 354 352 350 352 352 350
302 298 302 307 309 306 301 293 298 294 291 295 297 295 298 298 296 314 310 311 313 314 314 316 321 324 325 325 329 331 333 335 337 339 341 342 342 342 343 343 344 344 345 347 350 351 352 353 352 353 354 355 356 356 356 357 358 359 359 359 360 360 358 358 358 357 357 358 359 359 359 359 359 360 361 362 364 364 365 364 364 363 362 361 361 362 362 361 359 356 355 354 353 354 352 352 352
305 303 309 301 296 295 303 298 290 290 290 293 296 297 298 300 300 307 309 309 312 315 316 316 318 321 322 324 327 330 333 334 335 337 339 339 340 341 342 342 343 344 346 348 349 349 350 351 352 352 353 353 355 354 356 358 358 358 358 359 359 359 359 359 359 359 359 358 356 357 357 357 359 361 362 363 363 362 363 363 363 363 362 360 360 362 362 360 358 356 354 353 353 353 351 350 352
305 307 304 309 304 300 297 298 300 298 292 292 293 295 294 303 303 306 306 313 314 315 316 315 317 320 323 324 325 327 330 332 334 335 336 338 339 340 341 341 341 342 344 345 346 346 346 348 350 351 352 354 355 355 356 356 357 357 357 359 360 360 360 359 359 359 358 357 357 356 357 356 358 359 360 362 362 361 362 361 361 360 360 360 360 361 360 359 357 356 354 351 352 352 350 350 349
300 301 301 301 302 304 304 301 298 296 295 294 293 292 299 306 308 307 308 310 317 316 317 319 319 320 322 324 326 328 329 330 332 333 335 337 338 339 340 341 342 342 344 344 344 344 345 346 348 349 351 352 352 353 354 356 356 356 358 358 358 359 359 359 359 359 358 358 358 358 357 358 360 359 360 360 361 361 362 362 360 361 362 362 362 360 360 359 357 355 354 353 353 351 350 349 350
303 302 300 301 300 297 294 294 301 299 296 292 293 292 302 305 310 310 310 312 313 320 320 321 320 320 323 324 326 329 330 332 332 333 334 335 338 339 340 341 342 341 341 342 342 344 344 345 346 348 349 350 350 352 354 355 356 356 356 357 357 357 358 358 357 357 358 357 357 358 359 359 358 359 360 359 361 361 362 362 361 362 363 363 362 362 359 358 356 354 354 353 352 351 350 350 350
Wind_Speed
11 10 9 9 6 5 4 0 2 1 2 2 3 2 3 2 1 2 3 3 3 4 4 9 12 12 5 4 6 7 6 4 3 2 3 5 9 12 12 13 14 12 11 10 10 11 11 13 15 18 19 18 17 17 17 17 17 17 17 17 17 16 16 16 15 15 14 13 13 12 12 11 11 11 11 12 12 11 11 11 11 10 10 9 9 10 10 9 10 10 10 10 9 9 9 9 9
10 9 8 7 5 3 0 2 2 1 2 3 1 1 4 1 2 1 2 3 1 5 6 11 10 6 6 13 10 8 9 8 3 3 5 9 14 11 10 13 15 14 11 10 10 11 12 13 18 19 20 19 19 18 18 17 17 17 16 16 16 16 16 16 15 15 13 13 12 12 12 12 11 11 11 11 11 11 11 10 10 10 9 9 9 9 9 9 9 9 9 8 9 9 9 9 9
9 8 7 5 2 2 2 2 2 2 3 3 4 2 1 1 4 3 4 2 6 8 10 11 10 7 8 9 6 4 3 3 7 8 8 13 16 10 12 13 14 14 12 10 10 12 10 12 15 18 21 20 18 17 17 16 16 17 16 16 16 16 16 15 15 14 13 12 12 12 11 11 11 11 11 11 10 10 10 9 9 9 9 9 9 9 8 8 8 8 8 8 8 8 8 9 8
9 7 7 6 3 2 2 1 1 2 2 3 1 3 1 3 5 5 3 7 10 11 11 12 7 5 4 6 5 8 7 5 6 12 10 12 9 15 13 13 14 12 10 9 10 10 10 11 12 17 20 19 18 18 17 16 17 17 16 16 17 17 15 15 14 14 13 12 12 11 11 11 11 11 10 10 10 9 9 9 9 9 8 9 8 7 7 6 7 7 7 8 8 8 8 8 8
8 7 6 4 2 1 2 2 1 2 2 1 3 2 2 3 6 6 7 9 10 11 11 8 5 5 8 8 1 1 4 7 9 9 10 10 11 14 14 13 14 12 11 11 11 11 12 13 9 16 18 20 19 19 18 18 17 17 16 17 17 15 15 14 14 13 13 12 12 11 11 11 11 10 10 9 9 9 9 9 8 8 8 8 7 5 5 6 7 7 7 7 7 7 7 7 8
7 7 4 1 1 2 1 2 2 4 4 2 2 3 4 4 7 9 9 9 8 8 8 8 4 7 4 4 3 2 9 5 10 9 13 9 15 16 15 13 13 13 11 11 11 10 12 13 11 15 18 20 20 19 19 18 17 17 17 17 16 15 15 14 13 13 12 12 11 11 11 11 10 10 9 9 9 9 8 8 8 9 8 7 7 6 6 6 7 8 8 7 7 7 7 7 7
7 6 3 3 2 1 2 2 3 3 2 4 3 1 6 7 9 11 10 9 6 7 4 6 11 10 7 5 8 6 1 4 11 11 11 14 16 17 15 13 13 14 13 11 11 10 15 13 14 13 19 19 19 18 18 17 17 17 16 16 15 15 14 14 13 12 12 11 11 11 11 10 10 9 9 9 8 8 9 8 8 8 7 6 6 6 6 8 8 8 8 8 7 6 7 7 7
6 2 4 2 0 2 2 2 4 3 1 3 1 1 8 10 10 9 10 7 8 7 6 10 7 4 5 3 3 3 3 4 6 13 13 15 17 17 16 15 14 14 13 12 10 10 14 14 13 15 18 18 18 18 18 17 16 16 15 15 15 14 14 13 13 12 12 11 10 10 10 10 9 9 8 8 8 8 8 8 8 8 8 8 8 8 8 8 8 8 8 7 7 7 7 7 6
5 2 2 2 2 1 2 3 2 3 6 5 5 3 6 11 9 9 8 4 8 5 9 10 5 5 5 7 5 4 4 7 10 14 16 17 18 18 13 15 15 14 14 12 11 11 13 15 14 15 18 18 17 17 17 16 16 16 15 15 15 14 13 13 12 12 11 10 10 10 9 9 9 8 8 8 8 8 8 8 8 8 9 9 8 8 8 8 8 8 8 8 8 7 6 6 6
4 2 2 1 1 3 3 2 2 2 3 1 3 5 10 10 10 8 8 8 7 8 7 4 1 5 10 7 6 4 6 10 14 15 16 17 18 16 16 15 15 16 14 13 12 12 9 16 16 16 17 16 16 16 15 15 15 15 15 15 14 14 13 12 12 11 10 10 9 9 9 8 8 8 8 8 8 7 7 8 8 8 8 8 8 8 8 8 8 8 8 8 8 7 6 6 6
3 2 0 3 2 2 1 1 3 2 3 1 3 5 10 10 11 8 6 6 7 7 7 7 7 12 8 6 4 5 8 12 16 17 17 16 17 16 15 14 13 15 14 14 13 12 11 12 15 16 17 17 16 16 15 15 15 14 14 14 13 13 12 11 10 10 9 9 9 8 8 7 7 7 7 7 7 7 7 7 8 8 8 8 8 8 8 9 8 8 8 8 8 8 7 6 6
2 3 2 2 3 3 2 4 6 5 4 3 4 9 7 11 10 9 9 9 7 8 7 9 7 11 9 8 5 7 10 13 15 16 17 16 15 16 15 12 14 14 14 13 13 12 12 11 12 15 17 16 16 15 14 14 14 14 13 13 13 12 12 11 10 9 9 8 8 8 7 7 6 6 6 7 7 6 6 7 7 7 7 7 7 7 8 8 8 7 8 8 8 8 8 7 6
2 2 1 3 1 2 3 5 3 6 5 5 7 9 10 12 11 10 10 7 9 9 7 6 13 6 6 6 7 8 11 14 15 16 17 15 14 14 13 12 13 14 14 13 12 12 13 13 11 11 14 16 15 15 14 14 14 14 13 13 12 12 11 10 9 9 8 8 7 7 7 6 6 6 6 6 6 6 6 6 8 7 7 7 7 7 7 7 7 7 8 8 8 8 8 8 6
3 2 1 3 1 5 5 4 5 5 4 1 5 10 12 9 9 10 10 10 10 8 5 10 11 8 10 9 8 9 11 15 16 17 15 16 14 14 14 13 14 13 13 13 12 12 11 11 12 12 13 13 11 12 13 13 13 13 13 12 12 11 11 10 9 8 8 7 7 7 6 5 5 5 5 5 5 5 5 6 7 7 7 7 6 6 6 7 7 7 7 7 8 8 8 8 7
3 1 2 3 4 3 2 3 2 1 2 2 6 13 10 4 9 10 12 10 8 6 8 10 7 9 6 12 10 13 14 17 18 17 16 15 15 14 14 12 13 13 13 13 12 12 11 12 12 11 12 11 11 9 9 11 13 13 12 12 12 11 10 10 9 8 8 7 6 6 6 5 4 4 4 4 4 5 5 4 6 6 6 6 6 5 6 6 7 6 7 7 7 7 7 7 7
4 1 2 3 3 3 1 4 3 3 2 2 8 11 10 5 8 10 5 3 7 7 11 6 7 2 5 8 7 16 20 19 18 17 16 16 14 13 13 13 12 13 12 12 12 11 10 11 11 10 11 11 10 9 9 10 12 13 12 12 12 11 11 10 9 8 8 7 6 5 4 4 4 3 3 3 4 4 5 4 4 5 5 5 5 5 5 6 6 6 7 7 7 7 6 6 5
3 2 3 3 4 4 1 2 2 4 5 2 10 13 10 8 7 4 5 7 12 9 7 4 7 1 5 6 14 18 20 20 18 19 17 14 12 12 11 11 11 11 10 12 11 10 12 12 11 9 11 11 10 10 9 9 10 13 11 12 12 11 10 10 9 8 7 7 6 5 4 3 2 2 2 2 2 3 5 4 5 4 5 5 5 5 5 6 6 7 6 7 7 6 5 5 4
6 5 5 6 5 5 2 4 2 3 3 3 11 13 11 10 9 6 7 6 7 9 4 6 4 3 6 11 18 19 20 21 21 20 17 15 13 13 13 13 13 13 12 11 11 11 11 10 11 11 10 11 10 8 7 7 8 10 9 9 9 10 10 9 8 6 7 5 5 4 3 2 1 1 1 1 2 2 2 4 4 4 4 5 5 6 5 6 6 6 5 5 6 4 4 2 2
7 4 5 4 4 1 2 3 6 5 7 2 11 11 11 12 15 9 7 7 10 9 5 8 7 9 12 15 20 21 21 21 22 21 21 19 17 18 16 14 14 14 13 12 10 12 11 10 11 11 11 11 11 10 8 8 9 8 9 8 7 9 9 8 7 7 5 5 4 4 3 2 1 1 1 1 1 2 2 4 4 4 5 5 6 5 6 5 5 5 5 5 5 5 1 2 2
7 5 7 8 5 4 5 6 10 11 10 7 11 10 5 9 10 10 9 10 11 13 10 9 11 12 15 17 20 21 21 21 22 21 21 20 18 19 17 17 16 15 15 13 12 11 11 10 12 11 11 11 10 9 8 8 7 8 7 7 7 7 7 7 7 6 5 5 4 3 3 2 1 1 1 0 2 0 1 1 3 3 2 2 5 1 2 4 3 2 2 3 2 1 2 2 2
6 8 8 2 4 7 6 6 7 11 8 6 10 7 6 10 8 11 10 9 11 11 14 17 18 17 18 20 21 21 22 22 22 21 21 20 18 16 15 16 15 15 13 12 11 12 13 12 11 11 11 11 11 9 9 8 7 7 7 6 6 6 6 6 6 6 5 5 5 3 3 2 2 1 1 1 1 1 1 1 1 2 2 2 3 2 2 3 2 2 2 2 2 2 1 0 2
3 11 9 5 1 3 3 6 9 6 2 6 9 12 10 8 7 10 15 12 10 14 16 13 13 20 21 24 22 21 23 23 23 22 22 22 21 19 16 14 14 13 13 13 13 13 13 12 12 10 11 11 11 9 9 9 8 7 7 7 7 6 6 5 5 5 5 5 4 4 2 2 2 2 1 1 1 1 1 1 2 2 2 2 2 2 2 2 2 2 2 2 3 2 4 4 2
8 9 11 10 11 12 7 5 6 9 2 7 9 8 8 13 9 11 15 17 1 2 6 13 11 18 20 20 22 22 23 23 23 23 22 21 20 19 17 15 15 16 13 13 12 12 13 14 13 12 11 11 11 9 9 8 8 8 7 8 8 7 6 6 5 5 5 5 4 4 3 3 2 2 2 1 2 1 1 1 2 2 2 2 2 2 3 2 2 2 2 2 2 2 1 1 2
11 8 4 8 10 15 12 12 10 6 4 6 6 9 12 13 10 11 15 16 4 2 10 12 13 13 18 20 20 23 24 24 22 21 21 22 22 21 18 16 13 12 13 14 13 13 13 16 14 13 11 10 10 10 9 8 8 8 8 8 8 7 7 6 5 5 5 5 5 4 4 3 2 2 2 2 2 2 2 1 2 2 2 2 2 3 3 3 2 2 1 2 2 2 2 2 2
13 12 10 11 11 13 12 12 11 11 11 9 7 11 15 17 12 11 17 16 5 5 11 15 16 16 16 18 19 18 19 18 19 18 16 14 16 16 15 12 14 13 14 15 13 13 14 13 14 14 12 12 11 11 11 9 8 9 8 8 8 8 7 6 5 5 5 5 5 5 4 3 3 3 2 2 2 2 2 2 2 2 2 2 2 3 3 3 3 2 2 2 2 2 1 1 1
13 14 9 10 11 11 10 11 12 12 7 7 10 16 15 16 5 12 15 12 7 11 12 16 18 17 18 17 18 19 19 20 19 18 18 15 15 17 16 14 14 15 14 14 13 13 13 14 15 15 14 12 11 11 10 10 10 9 9 8 7 7 7 7 6 6 5 5 5 5 5 4 3 3 3 2 2 3 3 3 3 3 3 2 3 3 2 2 2 2 2 1 2 1 2 2 2
5 10 13 14 14 14 12 13 13 11 11 9 13 15 14 10 10 10 9 11 11 13 14 15 18 19 17 16 16 16 18 20 21 17 17 17 17 16 16 15 15 14 14 15 15 13 13 14 15 14 14 12 11 12 11 10 10 10 9 8 8 8 7 7 7 6 6 6 5 6 6 5 4 4 3 3 2 3 3 3 3 3 3 3 2 3 2 2 2 2 2 1 1 2 2 2 2
11 10 11 12 12 13 13 12 12 7 9 13 14 14 6 10 10 13 9 13 15 14 15 16 16 17 16 17 16 15 15 15 15 17 20 20 16 16 17 15 15 15 16 15 13 13 14 16 15 15 15 13 12 12 11 11 10 10 9 8 9 8 8 7 7 7 6 6 6 6 6 6 5 4 4 3 3 3 3 4 3 3 3 3 2 2 2 1 1 1 1 1 1 2 2 2 2
9 9 11 10 9 11 9 10 7 10 9 9 13 6 6 11 13 13 12 14 15 15 15 17 16 16 16 16 14 14 15 14 15 15 18 16 14 14 18 16 16 15 12 15 14 15 16 16 15 15 15 14 14 13 11 10 10 10 9 9 8 8 8 8 7 7 7 6 6 7 6 6 6 5 4 4 4 4 4 4 4 4 3 3 2 2 2 1 1 1 1 0 1 2 2 2 1
6 7 8 10 8 11 5 5 3 7 4 5 10 6 8 15 18 10 14 15 16 15 15 15 14 14 14 16 14 14 15 15 17 16 15 15 15 16 17 16 16 14 12 12 14 16 14 12 12 12 14 15 15 13 11 10 10 10 9 9 8 8 8 8 8 7 7 6 6 7 6 6 6 5 5 4 4 4 4 4 5 4 3 3 2 1 2 2 2 2 1 0 1 4 2 2 2
6 3 3 7 5 5 5 2 2 5 4 11 12 9 8 10 15 12 15 18 19 16 16 16 15 15 14 15 14 15 17 16 17 16 17 16 15 14 16 16 16 15 11 12 16 15 15 13 12 12 14 15 15 14 13 12 10 10 9 9 8 9 8 8 7 7 6 6 5 5 6 6 6 5 5 4 4 4 4 5 4 4 3 2 2 2 2 1 2 3 2 2 2 2 2 1 2
2 4 9 5 6 8 1 3 7 9 3 10 12 9 9 3 10 15 15 17 18 16 16 17 16 15 15 15 15 15 16 16 17 17 17 17 16 14 16 17 16 16 15 14 14 13 14 14 14 13 15 16 16 15 14 12 11 10 9 9 8 9 8 8 7 6 6 5 5 5 6 6 6 6 5 5 4 5 5 5 4 3 3 3 2 1 2 3 3 3 2 2 1 2 2 1 0
4 8 6 5 3 5 8 5 1 3 2 5 11 9 8 1 4 14 15 17 18 16 16 17 18 18 16 15 15 15 14 16 16 17 18 16 16 14 14 15 16 17 15 14 14 14 14 15 14 16 16 17 16 16 14 13 11 11 10 9 9 9 8 7 6 6 5 6 5 5 6 6 6 6 6 6 5 5 5 5 4 3 2 3 2 2 3 3 3 3 2 2 2 2 2 2 1
7 4 8 4 6 3 6 1 4 2 3 3 11 10 9 6 3 10 14 17 17 15 17 18 17 16 16 15 15 15 16 16 18 18 19 18 15 17 15 15 16 16 15 15 15 15 15 15 16 14 14 15 14 14 14 13 11 10 9 9 9 9 9 7 6 6 6 6 6 6 6 6 6 6 6 6 5 5 5 5 4 3 3 3 3 3 3 3 3 3 2 2 1 1 2 2 2
8 6 7 7 5 8 10 4 3 6 2 6 6 11 12 10 4 10 14 17 18 17 17 18 18 17 16 15 15 17 16 17 18 18 19 18 18 17 15 16 18 17 13 16 15 14 13 13 13 15 14 13 14 14 13 12 12 10 9 9 10 10 9 7 6 6 6 6 7 6 6 6 6 6 6 6 6 5 5 5 5 4 3 3 4 4 4 3 3 3 3 1 1 2 2 2 0
8 9 9 6 7 8 9 4 3 5 8 10 8 10 11 12 6 8 11 14 16 15 11 11 13 15 15 15 15 15 16 19 15 16 19 17 16 16 15 14 14 14 14 14 15 14 14 14 12 12 13 14 13 12 12 11 10 10 11 10 10 10 9 8 7 7 6 7 6 6 6 6 6 6 6 6 6 5 5 5 5 4 4 4 4 5 4 4 5 4 2 2 3 3 2 1 2
6 9 9 10 9 10 4 7 6 5 6 10 8 9 11 10 6 8 13 13 13 11 12 12 14 15 16 16 17 17 18 19 15 17 18 19 19 16 15 14 14 15 15 15 16 16 16 15 14 15 14 14 12 12 11 11 11 11 10 11 11 9 9 9 8 7 7 7 7 6 6 6 6 6 6 6 6 5 5 5 5 4 5 5 5 5 5 4 3 3 3 3 3 3 2 2 2
7 6 7 8 8 10 3 2 1 2 6 10 8 13 16 12 8 7 12 14 16 16 15 16 17 17 16 19 18 18 16 10 14 14 17 18 17 18 16 14 15 18 17 17 17 17 16 16 16 15 12 13 13 13 11 11 10 10 10 10 9 8 8 8 8 7 7 6 6 6 6 7 7 7 6 6 6 6 6 5 5 5 5 5 5 4 4 3 3 3 3 3 2 3 2 3 3
11 10 9 8 11 7 5 8 7 7 6 10 9 11 11 10 8 7 13 16 16 19 20 20 20 19 16 17 18 16 14 16 16 17 18 18 19 19 16 15 15 17 18 18 17 17 17 16 15 14 13 14 13 13 11 11 10 10 10 8 9 7 7 7 7 6 6 7 7 7 7 7 7 7 7 7 6 6 7 6 6 5 6 5 5 5 4 5 4 5 6 5 3 2 2 2 3
11 11 10 14 8 5 6 5 3 2 3 6 7 11 11 8 6 9 13 15 14 17 19 17 15 18 19 21 20 19 19 17 19 19 20 19 19 18 17 16 16 16 16 16 17 19 16 15 15 15 14 14 13 14 13 11 11 10 9 7 7 7 5 6 6 6 6 7 8 8 7 8 8 7 7 7 6 6 7 7 6 6 6 6 5 5 5 5 5 5 6 5 3 3 4 4 3
14 15 13 13 10 8 8 2 4 2 6 5 7 10 12 8 10 7 9 12 10 12 14 14 13 14 13 11 10 12 16 17 16 17 18 19 20 21 20 18 16 17 18 18 18 17 13 18 17 17 14 15 13 13 14 12 10 10 11 7 6 6 5 6 6 7 8 8 8 8 8 8 8 7 7 7 7 7 7 7 7 6 6 6 5 5 5 6 6 6 5 4 5 4 4 3 3
11 16 16 13 7 6 3 1 3 6 8 5 3 7 9 2 5 6 3 7 12 10 13 16 15 14 14 15 16 15 15 15 16 19 20 20 19 17 17 18 19 18 18 18 17 18 16 15 16 15 13 13 13 15 14 12 12 11 10 10 12 11 10 10 10 10 9 9 9 7 7 8 8 7 7 7 8 7 7 7 7 6 6 6 6 6 6 5 6 6 6 5 5 6 4 3 3
10 10 14 9 7 10 8 7 2 8 8 0 3 8 12 2 6 4 5 8 11 10 14 16 15 15 15 15 15 15 17 16 16 16 16 18 19 20 20 19 20 19 19 17 16 17 18 15 16 16 14 13 13 13 17 13 13 12 14 14 12 12 11 10 8 8 8 7 7 8 6 7 8 8 8 8 8 8 7 7 7 7 6 6 6 6 7 7 6 6 4 5 5 5 5 4 4
11 6 11 10 12 12 11 9 9 10 7 10 7 9 10 14 12 8 6 8 10 12 15 16 16 17 18 17 17 17 17 18 16 19 19 20 20 21 22 23 21 21 19 17 17 17 18 18 17 17 14 13 14 16 18 16 15 13 14 13 11 11 12 9 9 8 7 6 7 8 7 6 7 8 8 8 8 8 7 7 7 7 7 7 7 7 7 7 5 4 5 5 5 5 6 5 5
5 6 8 11 11 12 11 10 11 9 7 12 9 10 10 13 6 5 8 8 10 14 15 17 18 18 19 19 19 19 19 19 18 17 20 21 22 23 21 21 21 20 18 18 18 17 16 16 16 15 15 16 14 18 18 19 15 13 13 12 11 10 10 8 7 7 7 8 9 8 8 7 7 7 8 8 8 8 7 7 7 7 7 7 7 7 7 7 7 6 6 5 6 5 5 5 5
5 3 6 6 7 7 10 9 8 5 5 15 12 10 10 14 10 5 6 10 12 14 15 17 18 19 19 20 20 20 18 17 18 19 19 20 21 21 21 19 19 19 18 17 17 15 14 14 15 16 17 15 16 20 19 18 19 13 13 13 15 11 10 8 8 8 8 8 9 9 8 7 7 7 7 8 8 8 8 8 7 8 8 8 7 7 7 6 6 7 7 7 7 7 5 5 6
7 9 7 8 6 5 3 3 5 4 14 16 12 10 9 14 11 10 9 10 11 8 8 11 14 17 18 19 20 19 19 19 18 19 19 19 20 19 18 19 19 18 16 17 16 15 15 15 15 16 17 14 16 19 18 19 19 15 14 15 16 14 13 11 10 9 9 9 10 10 9 9 8 7 7 7 9 9 9 8 8 8 8 7 7 7 7 7 7 7 7 7 7 8 5 6 5
12 9 10 5 4 2 4 3 4 10 13 3 10 11 13 12 8 10 13 9 13 13 14 13 15 18 18 18 18 20 20 18 19 18 18 19 18 18 18 19 19 19 18 18 17 16 15 15 15 17 17 17 17 18 19 18 17 17 15 15 15 14 13 11 13 12 12 12 12 10 9 7 8 7 7 7 8 10 8 7 8 7 7 9 9 8 7 7 6 6 6 6 6 7 6 6 6
14 10 10 11 5 4 9 6 10 14 9 2 3 12 10 20 12 1 9 12 11 14 13 13 15 16 18 19 20 19 19 20 19 19 18 17 18 19 20 20 19 18 18 19 19 18 17 16 18 18 18 17 16 17 19 18 18 17 16 16 15 13 14 13 13 13 12 11 11 10 9 9 8 8 8 9 9 11 8 7 8 8 9 9 9 9 7 7 6 6 6 7 7 7 6 7 6
16 14 13 12 10 10 10 10 3 4 3 4 1 5 13 6 7 12 13 13 14 14 14 14 14 15 17 18 18 18 18 19 20 20 20 19 18 18 20 20 19 18 20 20 20 19 16 16 18 19 19 17 16 17 19 18 19 19 16 15 14 12 13 13 12 12 12 11 10 11 11 11 10 11 10 10 9 10 9 8 9 10 9 9 9 10 8 7 7 6 7 7 8 7 6 8 7
15 11 12 13 10 7 10 7 10 6 2 5 3 6 8 7 2 7 17 17 16 15 15 14 15 14 15 17 17 20 20 19 18 18 20 21 20 21 20 19 18 19 21 21 19 19 16 16 17 19 19 18 18 18 16 18 17 17 15 14 13 12 13 12 12 11 11 11 11 12 11 11 10 10 10 9 9 10 10 9 10 11 10 9 10 10 7 7 7 6 6 7 7 6 7 7 6
12 12 11 10 15 4 5 2 6 4 4 4 7 9 2 4 3 4 4 6 10 10 10 10 12 11 10 9 13 16 18 20 20 20 20 21 19 19 18 18 18 18 20 20 21 18 18 18 18 20 20 19 19 19 18 18 17 15 16 16 16 14 12 11 10 10 10 12 12 12 11 11 10 9 8 9 10 10 10 10 10 11 11 10 12 9 9 7 8 8 7 7 8 5 6 8 6
10 10 15 14 6 10 5 0 2 2 1 10 5 8 8 4 9 12 10 7 10 11 12 13 13 13 11 11 13 16 17 18 18 20 20 22 20 18 18 19 19 20 19 20 20 19 21 18 18 20 20 18 19 19 19 17 17 16 17 17 16 15 15 15 14 15 15 12 11 11 11 11 10 9 8 9 10 10 10 10 10 11 11 11 12 9 9 8 8 8 8 8 8 8 7 7 7
11 12 12 8 6 8 8 8 3 6 9 5 6 15 9 3 10 3 10 13 12 11 13 14 14 12 11 12 13 15 18 20 22 22 20 19 19 21 20 18 20 21 23 23 21 20 18 18 20 20 19 20 20 20 20 18 18 18 16 17 17 16 16 16 15 14 14 12 11 10 11 10 12 11 9 8 10 11 10 11 10 10 10 11 12 9 9 9 9 8 8 8 8 7 7 6 6
13 10 13 10 8 11 7 5 12 10 10 7 7 10 13 11 11 2 6 12 12 11 11 12 13 14 14 13 14 15 16 15 16 18 16 17 19 20 22 23 24 22 21 20 20 20 18 19 20 21 22 23 22 19 18 15 16 14 14 16 17 16 15 15 14 13 13 13 14 13 13 12 11 10 9 9 10 10 10 11 11 10 10 11 13 10 9 9 9 8 8 8 8 8 7 7 7
6 8 13 5 4 9 10 12 0 5 9 4 6 6 12 10 12 12 9 7 10 10 8 11 14 14 13 12 12 13 14 15 16 17 18 20 22 24 24 24 24 23 22 21 22 20 22 22 20 20 20 18 18 19 18 18 18 17 15 14 15 15 15 14 14 13 13 14 14 14 14 13 12 11 11 11 10 11 11 12 11 12 12 12 12 10 10 9 9 9 8 8 8 9 9 9 8
10 10 11 6 7 2 7 2 10 7 7 8 7 9 5 3 10 14 17 14 11 11 10 10 12 13 14 13 12 11 13 15 16 17 18 21 23 23 24 23 22 21 19 19 19 21 22 21 21 22 21 22 22 21 19 18 16 17 17 17 17 16 17 15 15 15 14 14 14 13 13 12 10 11 11 12 12 12 12 12 13 12 12 11 11 10 9 9 9 9 9 9 9 10 10 8 8
16 15 14 14 12 9 10 10 4 8 7 4 5 13 3 3 3 9 11 13 14 11 11 11 12 14 12 12 13 11 9 12 15 16 18 18 19 19 20 18 17 17 18 20 19 19 21 21 21 22 21 20 22 20 18 17 17 17 20 19 19 17 17 16 17 16 16 14 14 13 13 12 12 12 12 13 13 12 12 12 13 13 12 12 11 11 11 10 10 10 10 8 9 10 10 10 8
Wind_Direction
165 163 156 157 154 171 139 314 274 148 251 271 291 227 65 225 188 182 122 138 156 128 140 124 139 143 146 166 120 85 29 162 22 238 73 102 138 134 146 144 141 136 131 134 135 139 146 154 160 145 134 135 137 136 132 133 133 133 131 127 122 118 118 118 118 118 120 124 122 120 118 117 113 106 98 91 89 88 86 84 83 79 73 66 62 66 72 73 75 76 74 72 75 75 80 83 81
161 154 152 154 166 181 174 199 262 263 214 271 139 268 53 107 199 77 122 167 61 139 140 136 134 95 97 116 123 121 64 36 14 81 89 126 138 138 144 145 144 136 133 135 140 141 145 158 156 146 135 135 135 134 131 132 132 131 128 123 120 120 121 122 122 123 127 128 125 123 121 118 110 102 97 93 90 86 84 82 80 79 76 70 58 52 57 65 71 77 79 79 76 77 77 81 87
156 157 149 152 142 239 278 209 291 342 318 43 59 21 104 113 69 95 110 135 131 125 134 128 117 100 121 126 128 326 88 67 108 119 116 143 139 155 149 145 143 137 135 139 138 138 140 141 140 140 138 136 136 132 129 132 133 130 125 124 125 126 126 126 126 128 131 129 126 124 121 114 107 102 98 96 92 89 85 84 81 79 76 70 61 53 50 52 64 71 79 84 82 80 80 79 83
154 160 160 163 159 202 282 275 2 310 321 23 18 75 8 66 86 80 122 128 131 135 136 141 139 355 176 147 91 90 101 124 140 137 135 159 154 150 148 143 143 140 136 141 141 142 143 137 139 140 138 135 132 131 136 136 136 131 131 131 131 130 129 129 131 133 133 131 129 125 119 112 106 102 100 96 94 92 88 83 79 77 73 69 66 59 52 47 59 68 73 76 83 84 77 76 79
158 167 168 173 271 152 320 5 326 240 13 46 31 34 96 89 100 100 107 127 137 143 149 129 95 63 55 78 65 307 128 118 144 148 142 148 139 150 143 141 145 143 143 144 143 144 144 133 136 139 138 136 136 137 139 143 138 135 135 134 133 131 131 132 134 136 135 134 130 124 117 110 105 103 99 96 94 91 86 81 76 74 78 75 75 73 59 53 57 65 66 70 77 78 80 80 80
150 160 170 346 338 31 236 213 209 240 293 301 275 54 98 120 113 115 120 129 134 147 141 137 133 147 101 35 8 111 136 141 158 152 153 145 149 150 143 145 146 147 144 146 144 145 144 137 134 141 141 141 142 142 143 141 138 139 137 134 132 133 134 136 137 139 139 135 129 123 115 111 109 104 100 96 92 87 81 76 70 67 61 58 63 61 63 56 59 60 66 70 73 81 79 69 68
150 151 191 242 233 226 281 290 279 283 321 217 247 58 140 128 126 129 130 125 125 126 148 131 117 118 114 120 90 89 42 108 157 156 161 146 147 150 148 147 147 147 148 147 148 146 144 141 144 149 148 144 142 141 141 141 141 139 136 135 135 136 138 139 140 141 140 135 129 122 117 114 111 107 102 96 91 85 77 69 63 62 68 67 62 62 57 59 61 65 68 71 75 79 82 73 72
155 213 159 244 184 235 242 284 269 238 91 221 265 292 148 140 142 144 147 157 156 163 150 138 152 103 78 161 144 91 105 156 136 144 143 147 148 151 153 149 149 150 151 149 150 148 144 149 149 155 150 144 142 143 144 142 141 138 137 137 138 140 141 142 142 143 141 134 128 123 118 115 113 108 104 99 91 83 75 70 61 53 50 44 48 51 52 58 62 66 70 71 74 77 77 79 79
152 232 112 223 269 227 243 243 288 218 276 252 243 254 157 148 154 149 154 144 131 142 151 159 157 188 126 125 100 124 121 132 132 140 144 148 150 152 155 154 152 153 154 154 151 149 153 153 156 162 151 145 144 144 144 142 141 140 139 140 142 143 144 143 144 144 139 133 128 124 121 118 114 110 104 97 88 79 75 70 64 57 51 48 48 56 60 61 66 69 68 68 70 71 73 80 83
144 268 161 307 295 263 279 163 224 115 251 281 247 181 163 154 154 161 149 156 156 145 134 122 107 117 134 115 118 144 138 143 137 139 144 151 150 152 156 157 152 154 155 156 154 152 155 156 159 166 151 147 146 146 146 144 143 142 142 142 144 144 144 144 145 142 138 133 129 126 124 120 117 111 104 96 87 80 73 68 65 59 53 49 48 59 54 61 64 63 62 66 69 71 75 77 80
159 189 301 257 254 289 331 45 296 224 222 268 226 186 167 158 150 153 164 135 146 152 130 139 109 128 138 113 80 83 132 141 147 146 148 151 152 154 155 157 151 155 158 160 157 156 155 157 162 166 152 152 151 150 149 147 145 145 145 145 145 146 145 145 145 142 138 133 131 129 127 123 119 111 103 96 85 78 71 64 61 59 56 53 50 56 58 63 61 60 61 64 67 71 72 75 73
191 196 190 263 277 306 348 316 308 306 280 237 202 173 169 156 149 153 158 150 155 148 159 183 152 140 115 131 126 137 142 151 153 146 149 151 155 155 156 157 158 160 159 161 161 160 159 160 161 168 155 155 154 153 152 149 147 148 148 148 148 147 147 148 146 144 140 136 134 134 132 129 121 113 105 95 85 76 70 64 63 63 62 57 56 59 64 61 61 61 59 60 63 63 65 70 78
259 169 185 267 265 244 312 284 297 314 298 220 178 174 165 159 174 168 167 151 159 159 172 178 136 159 127 139 126 139 156 154 153 152 150 155 156 157 156 159 162 162 163 163 164 164 165 161 161 173 159 158 158 158 156 151 151 152 153 151 150 150 151 151 148 146 144 140 140 139 138 133 124 116 105 97 85 74 68 60 58 60 62 62 63 63 64 62 63 61 56 58 61 60 59 61 69
227 194 270 282 266 271 280 294 282 282 250 44 169 158 170 173 178 160 153 158 167 173 128 140 154 132 105 118 150 159 161 157 153 153 153 155 155 157 159 161 164 164 166 166 168 167 169 166 165 171 160 163 162 162 160 157 155 157 156 154 153 155 155 154 152 151 148 147 148 144 143 139 128 118 112 99 89 79 71 55 57 57 59 61 59 62 64 63 59 64 64 59 59 59 63 62 57
217 148 259 284 281 288 250 246 31 289 280 165 161 160 167 171 157 162 173 160 152 94 118 146 152 171 176 167 174 174 163 160 155 154 155 155 158 157 158 162 165 167 170 173 170 170 171 171 173 172 168 167 166 167 166 163 163 162 160 158 158 160 159 159 157 155 153 155 154 151 147 145 131 122 111 103 82 72 78 79 51 56 58 58 58 61 61 63 64 62 66 65 68 69 65 64 63
209 246 230 274 272 284 174 247 259 265 314 202 157 160 155 127 165 169 184 151 121 128 145 154 199 253 132 194 155 159 157 156 155 156 154 156 159 156 158 163 168 170 173 178 175 175 174 175 176 172 171 171 171 170 169 168 167 166 163 162 163 163 165 164 163 161 159 160 159 152 147 157 154 135 107 112 72 64 65 33 48 55 59 58 63 66 70 69 66 62 60 69 61 58 56 60 58
207 260 234 231 272 229 110 236 241 16 344 173 153 162 160 156 151 82 89 108 138 156 167 146 177 272 176 168 141 147 152 154 154 156 155 156 157 159 164 165 169 173 175 181 183 180 179 176 174 176 176 174 174 173 172 172 168 168 167 167 168 168 170 170 168 167 166 165 168 154 160 181 135 112 114 84 94 69 48 43 39 47 52 55 59 63 69 76 76 65 54 71 83 60 55 44 47
177 211 227 238 248 255 231 263 253 350 322 147 178 177 154 147 162 135 126 110 123 147 172 132 72 60 123 120 137 148 150 155 159 159 162 161 164 164 169 171 173 176 178 180 187 185 182 178 178 178 178 178 176 173 173 175 171 175 173 171 173 173 174 175 175 177 174 172 166 166 175 165 160 119 97 65 64 46 82 21 25 33 39 50 48 56 60 63 65 74 59 52 96 84 54 10 34
191 194 218 256 206 212 215 265 274 292 320 228 193 187 179 167 158 159 172 153 150 161 175 160 118 106 113 131 139 152 157 160 164 167 166 167 169 170 171 172 178 177 180 181 186 189 187 180 183 180 179 180 180 178 177 178 174 176 177 176 174 178 176 182 180 179 184 176 177 173 178 184 167 145 111 44 345 17 29 13 20 26 29 38 37 39 43 46 43 45 63 43 51 92 42 3 1
213 223 230 237 245 272 259 274 290 284 287 239 191 187 205 151 160 157 188 160 173 186 172 174 166 148 144 148 149 155 163 164 169 171 172 171 173 173 173 175 178 182 180 182 185 188 187 185 186 183 181 180 182 182 181 180 181 179 178 179 179 179 181 184 184 185 181 181 179 183 190 180 206 197 107 162 271 236 96 9 4 345 4 24 18 30 56 57 41 15 40 53 93 17 335 350 338
186 219 227 239 245 243 252 250 283 310 312 231 183 161 180 169 162 171 155 153 204 215 194 180 178 163 154 158 158 161 166 168 172 174 174 172 174 176 177 178 180 179 181 178 183 189 190 188 186 186 184 183 185 182 182 184 184 185 177 182 185 185 185 185 184 186 187 187 189 194 199 192 217 235 215 255 287 333 335 333 351 16 14 19 14 28 14 26 2 11 14 14 15 358 76 273 306
192 226 234 238 170 271 275 306 303 333 17 158 164 175 195 153 168 188 166 188 208 210 203 199 176 157 156 162 164 164 169 172 175 176 177 175 175 176 176 177 180 180 178 183 186 187 191 191 189 186 187 188 187 187 184 184 185 187 183 185 187 189 189 189 189 190 190 192 195 201 204 202 228 234 237 259 258 294 299 326 340 353 354 2 12 15 23 8 359 3 10 14 25 356 21 348 340
239 230 241 244 260 274 284 279 293 314 172 159 184 184 137 176 194 194 188 204 130 118 192 183 172 166 161 159 160 166 170 174 177 178 175 175 175 178 177 177 178 180 181 186 184 187 188 193 192 190 189 188 190 190 190 187 190 190 188 188 190 190 192 193 196 196 195 192 198 198 214 209 221 234 234 244 259 265 282 309 323 325 336 339 2 347 1 3 353 359 2 12 62 347 78 320 339
235 251 221 238 241 248 260 270 278 268 233 231 197 159 181 185 206 192 208 215 58 89 167 162 147 153 156 161 173 171 172 175 178 178 177 177 176 177 177 177 177 177 182 183 185 185 188 192 192 192 192 190 188 191 193 194 190 194 193 190 197 191 195 198 199 198 195 199 201 208 223 220 228 230 239 246 247 253 273 297 300 301 305 321 355 338 340 350 351 354 356 17 26 20 22 341 315
225 242 250 266 269 264 263 265 264 262 256 260 162 191 205 191 200 162 218 210 160 122 148 140 145 154 165 167 172 175 173 172 174 176 176 178 177 174 175 177 178 177 183 184 184 186 189 190 190 194 192 194 193 192 197 198 193 198 195 198 199 195 202 204 201 197 200 203 199 213 219 220 223 236 234 240 250 265 277 279 284 289 305 314 330 325 335 336 339 352 1 8 23 10 347 338 328
222 241 255 256 256 266 267 267 268 261 258 219 207 222 216 200 155 212 218 194 135 132 143 148 150 160 169 175 174 173 176 177 174 176 178 177 176 176 180 180 179 185 186 181 182 187 188 190 193 194 195 192 194 195 198 199 198 199 199 200 198 196 204 204 201 204 205 203 203 208 216 222 230 231 231 241 251 260 268 274 281 287 300 308 305 312 325 321 334 346 11 1 353 346 330 339 306
168 227 237 250 259 267 266 262 265 263 251 220 222 231 224 181 178 238 199 161 135 143 152 157 159 168 174 174 176 179 179 178 178 172 175 180 181 183 181 182 185 186 182 187 188 188 188 189 193 195 195 193 194 198 198 201 201 202 200 201 202 202 200 201 205 209 207 206 207 204 210 217 226 234 237 239 245 253 260 270 276 289 284 286 293 292 310 314 327 342 8 349 335 335 330 326 300
266 275 276 264 265 261 262 259 255 246 258 223 221 239 207 167 202 236 148 153 156 152 158 165 168 169 176 178 177 178 184 183 175 175 179 181 183 184 182 183 182 182 187 188 188 187 189 192 192 194 196 195 197 200 199 202 203 203 202 204 205 205 201 205 207 208 208 210 208 206 210 214 220 226 232 236 242 247 257 263 271 277 282 285 279 289 302 293 288 3 58 32 356 325 316 303 300
249 267 275 278 286 282 249 247 237 193 244 207 209 218 186 176 221 216 150 156 165 159 163 169 173 171 173 179 180 180 183 182 184 186 187 185 183 184 185 185 180 181 187 187 187 187 190 192 193 195 196 196 199 201 201 203 204 205 205 206 207 205 206 208 210 209 209 209 208 209 210 212 217 221 217 228 235 245 254 262 270 269 278 284 283 286 261 236 234 216 154 57 326 307 291 303 293
241 235 262 289 281 278 277 217 244 204 243 156 154 237 207 203 216 184 153 161 164 162 167 173 174 173 175 178 184 183 182 184 192 193 186 186 187 188 188 184 184 183 180 182 183 188 190 191 193 195 198 199 200 202 202 204 205 206 208 207 207 205 208 210 212 212 210 210 208 208 209 209 213 212 216 221 234 244 250 256 263 269 273 275 273 230 224 214 236 258 174 337 12 284 315 324 322
236 270 283 259 284 252 113 54 124 226 154 170 184 262 266 194 207 174 165 164 168 174 172 174 175 177 177 182 185 186 188 190 193 193 191 189 189 191 191 186 186 185 182 184 186 184 185 188 190 196 197 201 201 204 203 205 205 207 207 209 208 207 209 213 214 212 208 205 200 199 204 204 209 212 213 223 231 243 251 254 256 263 272 276 262 214 241 237 245 250 212 183 278 302 311 352 339
252 249 231 203 232 255 287 291 207 251 166 201 192 260 273 163 195 175 170 174 173 175 175 175 175 179 181 184 186 188 191 191 196 197 196 192 189 192 192 191 188 188 189 186 186 184 187 187 191 197 196 201 204 205 206 207 207 208 209 210 211 208 211 213 216 212 204 203 206 208 202 209 211 214 215 216 233 236 245 253 257 260 255 259 245 206 215 234 239 243 220 241 266 298 318 252 42
208 237 258 231 190 275 324 115 262 254 180 188 209 265 296 255 166 169 174 176 180 176 177 178 178 180 182 186 188 189 188 193 195 198 197 194 194 194 194 193 191 193 190 185 185 184 188 189 192 198 196 201 203 205 207 208 209 208 210 211 212 211 212 209 208 211 212 212 214 215 203 204 213 213 213 215 226 236 239 245 251 247 236 242 226 210 221 230 229 228 211 252 304 301 290 282 218
210 188 243 252 254 274 250 301 90 37 225 213 220 251 264 292 110 171 181 181 182 185 181 181 179 180 184 187 189 188 191 192 196 197 197 195 196 196 197 196 195 194 193 190 187 185 187 188 195 198 197 196 201 204 205 207 209 211 212 217 217 218 214 212 210 209 214 215 211 215 205 204 211 214 212 212 221 233 240 246 256 232 225 218 216 213 224 221 222 238 230 202 240 270 271 277 241
194 186 223 234 222 242 265 273 81 343 65 296 271 249 264 275 137 182 189 189 187 193 185 182 181 181 182 189 193 193 193 196 199 194 193 195 197 197 195 195 199 196 193 192 190 189 187 189 192 197 197 195 200 203 203 206 208 210 215 216 218 219 222 218 215 213 214 213 218 211 204 208 213 213 213 210 218 225 229 233 238 220 206 205 205 211 216 213 223 222 246 172 167 261 277 282 20
199 199 223 243 241 228 234 255 310 356 319 297 272 275 279 268 217 182 191 197 200 201 189 181 183 182 183 189 195 195 196 202 199 192 191 192 195 194 195 194 194 193 193 191 190 188 189 189 189 190 195 196 195 198 201 204 206 209 212 214 219 221 222 218 217 219 217 216 214 207 206 211 213 213 213 211 215 220 228 227 224 207 201 203 206 215 213 214 217 215 189 232 224 213 207 192 206
174 198 217 235 243 258 260 276 285 306 293 268 285 284 283 284 273 195 195 191 203 201 189 189 189 187 189 192 197 199 198 201 192 192 190 192 194 195 195 193 194 193 194 191 189 190 190 190 187 192 194 192 191 193 197 199 201 205 210 213 215 212 215 216 218 216 217 217 211 209 208 214 215 216 217 214 215 216 225 230 218 209 201 205 210 220 220 228 207 155 214 223 233 237 221 197 190
184 180 200 219 222 249 221 265 20 248 286 280 275 284 278 275 269 203 190 189 199 201 197 196 194 194 194 195 198 200 199 189 188 191 194 193 194 194 192 194 194 198 199 196 192 193 193 193 194 193 189 190 194 192 191 194 198 200 201 207 209 205 203 209 215 214 216 212 205 207 213 219 218 215 216 214 215 215 220 217 216 214 199 207 212 209 198 191 186 195 199 208 210 261 244 224 153
224 228 222 244 241 247 271 265 254 265 245 272 292 283 282 290 288 212 190 194 203 203 200 198 194 195 197 198 200 195 187 191 192 194 191 194 194 194 194 196 197 200 199 198 194 194 193 194 197 191 190 190 194 192 189 192 192 196 197 197 199 201 206 208 212 209 205 210 209 210 214 216 216 217 215 210 212 213 218 217 218 213 207 204 198 199 196 197 208 212 212 238 234 183 222 144 173
221 218 220 228 230 209 240 127 122 168 234 300 306 295 288 284 256 233 207 203 207 207 207 207 202 199 197 197 193 191 191 188 191 191 193 194 195 195 195 196 196 197 201 200 197 195 192 194 193 192 192 192 191 192 192 189 189 188 192 190 192 203 197 198 206 206 208 213 217 209 211 215 215 220 214 211 210 214 212 215 217 212 206 203 209 206 202 208 205 209 221 233 242 239 199 185 182
219 221 225 229 208 218 240 279 328 294 236 237 290 287 282 257 262 227 208 210 215 211 209 211 210 212 210 208 203 200 197 196 194 192 194 195 196 197 196 194 193 197 202 202 199 196 197 196 194 192 192 193 192 189 186 183 182 191 200 192 200 208 221 212 203 214 210 210 216 211 214 211 216 219 217 211 214 215 213 214 213 211 208 200 205 214 212 216 210 224 222 224 204 231 232 190 160
216 224 225 230 204 203 180 186 279 279 278 226 272 296 270 198 243 263 104 190 218 210 208 213 211 211 206 205 206 204 205 201 196 196 197 197 198 196 197 197 198 199 201 202 200 199 198 198 195 193 194 194 193 189 185 185 191 188 186 197 206 210 213 210 209 203 199 203 213 217 209 209 213 216 214 214 215 214 211 210 210 210 207 200 202 218 221 211 216 228 221 229 200 203 234 218 186
219 226 205 213 192 213 211 223 248 265 257 46 182 249 272 142 261 218 182 206 216 207 215 216 211 213 211 210 208 204 201 199 201 201 198 198 198 197 198 199 200 202 205 201 200 202 200 197 195 193 194 196 194 190 193 190 195 194 191 197 198 199 203 209 204 200 200 198 200 205 204 203 206 212 213 209 209 209 211 207 206 210 211 207 202 210 219 222 232 225 200 198 206 182 190 216 210
229 126 162 179 201 211 223 230 241 263 284 274 229 263 282 281 259 226 188 210 212 214 216 216 215 212 211 212 210 208 204 202 199 199 199 200 198 199 199 198 198 204 201 199 201 201 199 197 192 193 195 196 195 198 195 195 196 192 195 195 198 201 205 201 190 191 192 187 200 210 210 209 203 208 211 200 204 206 207 206 204 208 212 218 215 217 226 230 225 200 187 198 192 186 191 211 217
216 146 153 180 195 218 223 232 250 252 269 267 246 200 243 252 261 113 172 221 216 226 217 215 216 214 211 212 211 207 205 203 202 199 201 200 201 203 202 200 202 201 199 201 201 200 199 197 194 193 195 198 193 196 196 200 198 190 191 192 199 207 207 204 186 187 191 193 204 203 206 211 205 202 205 205 201 207 204 205 201 205 209 213 218 224 228 222 207 192 181 185 192 192 197 205 211
186 117 164 167 181 188 205 219 230 220 218 251 241 184 245 264 252 201 165 226 228 222 218 220 215 211 209 210 211 208 205 203 205 207 204 203 204 205 204 204 201 201 202 202 202 199 199 197 197 196 199 200 197 199 197 196 200 191 193 196 200 201 198 199 193 188 191 188 201 202 204 206 211 205 201 203 203 205 206 203 202 206 210 210 209 223 216 201 193 194 195 193 194 196 191 200 211
122 149 152 144 143 147 131 206 231 256 246 248 240 194 217 276 243 213 174 210 215 221 224 224 217 215 213 212 210 207 203 201 202 206 208 208 207 206 202 203 204 201 201 202 199 199 200 198 198 200 203 198 199 201 196 198 201 195 197 198 200 200 194 190 188 194 190 189 200 203 201 206 205 207 200 197 204 203 204 202 206 206 209 206 206 214 208 207 200 197 197 193 192 197 192 200 210
168 192 197 176 192 170 220 205 191 238 252 230 199 208 197 240 255 195 209 191 199 207 224 216 211 210 210 208 209 208 204 201 200 202 207 207 204 203 201 207 204 201 199 199 199 199 199 198 196 201 203 202 204 202 201 202 201 203 202 200 202 202 193 193 195 197 193 195 198 200 199 199 204 203 199 200 202 204 198 199 205 207 213 223 226 221 208 206 205 192 187 189 193 197 197 199 213
202 196 197 202 199 174 228 188 223 227 239 84 181 187 205 229 244 133 189 215 209 213 222 220 211 210 207 208 207 206 204 203 198 199 201 201 202 198 199 204 200 198 197 198 200 200 197 194 193 197 201 197 199 199 202 200 201 204 202 201 202 197 196 195 195 197 193 194 196 197 191 199 199 200 201 206 206 199 193 195 203 212 220 223 224 223 205 194 195 193 189 193 195 189 193 198 204
198 196 190 191 200 198 222 208 267 288 172 202 51 159 249 289 269 217 229 210 211 211 218 223 216 203 199 204 205 203 203 203 202 200 200 198 197 197 199 201 197 197 199 197 198 200 198 194 192 198 201 195 196 198 203 200 205 206 202 202 201 195 199 199 199 199 197 196 194 198 199 201 200 204 202 204 201 194 194 196 206 217 212 207 211 218 200 192 192 198 193 196 198 193 191 196 207
201 196 185 203 202 194 208 200 210 225 272 131 117 162 237 184 238 188 211 208 206 207 209 211 218 208 200 202 198 198 201 203 203 203 202 201 196 193 196 197 197 197 201 201 199 197 192 189 190 195 198 193 193 197 198 201 204 203 202 202 200 198 200 201 203 201 198 195 199 200 201 202 204 203 201 196 187 189 193 198 208 218 211 207 216 214 195 191 191 196 198 199 202 190 192 195 202
193 186 199 214 215 134 241 146 218 228 203 175 180 218 74 213 358 291 243 255 234 234 235 226 228 222 209 198 198 200 203 205 202 202 204 204 200 191 193 195 196 197 198 200 200 193 194 195 190 193 196 193 192 194 198 199 202 202 202 202 203 199 198 200 201 197 199 197 196 198 200 201 206 203 197 186 187 188 192 197 202 215 217 213 217 201 195 192 188 196 197 197 202 189 192 195 203
173 174 205 216 157 185 218 355 4 92 323 245 173 264 253 274 251 236 234 216 236 234 231 230 233 230 203 201 201 202 204 205 203 206 205 203 197 193 198 197 196 196 196 198 197 192 196 194 190 193 195 193 193 195 198 197 199 199 202 202 202 201 199 200 203 204 207 204 201 200 203 206 205 204 199 194 192 190 194 197 203 209 210 218 216 198 195 192 185 195 199 195 201 198 192 199 203
130 201 202 122 130 215 220 238 146 223 244 236 179 237 243 197 275 124 206 209 213 214 224 228 232 234 216 213 203 203 205 204 203 204 203 196 195 198 200 202 199 196 196 198 197 195 194 193 196 194 191 194 195 194 196 197 196 199 201 201 202 202 202 205 206 203 201 199 198 200 204 204 206 206 201 197 193 190 192 191 199 203 207 214 217 198 195 192 187 198 199 198 200 192 191 195 199
189 204 142 163 167 195 183 209 233 220 231 251 223 231 250 220 229 156 178 209 214 218 216 220 224 229 232 226 214 210 209 207 205 205 201 198 200 199 200 203 202 201 198 196 193 194 194 195 199 198 197 198 195 194 196 197 197 198 201 201 201 202 203 204 204 200 196 199 202 201 204 206 204 201 196 192 193 197 195 194 199 204 205 212 218 202 191 190 189 198 198 200 195 191 196 198 197
23 126 167 186 187 198 166 200 312 198 239 238 242 163 257 201 227 216 234 222 230 230 224 227 228 222 220 224 220 207 199 203 205 204 204 201 203 203 201 202 202 201 197 199 197 195 197 199 197 199 201 198 195 195 192 194 195 197 199 198 200 201 201 201 200 196 197 202 204 204 203 204 200 198 199 196 199 202 200 198 198 203 206 208 207 199 194 191 189 200 198 203 196 190 198 203 203
187 188 189 165 214 24 196 167 211 200 223 228 267 268 255 181 188 200 217 223 219 227 231 229 231 235 233 229 224 206 197 201 206 205 203 204 205 204 204 203 204 203 200 197 196 196 198 197 197 198 196 194 194 195 193 194 192 198 196 195 197 197 200 202 205 203 203 203 202 202 202 203 196 198 196 197 200 202 202 201 201 199 199 197 196 197 193 191 193 196 200 199 195 189 197 204 201
196 192 197 185 182 168 182 211 183 223 209 224 203 252 201 135 156 198 211 216 221 220 222 226 229 232 234 234 234 230 210 207 205 204 204 205 204 203 204 203 201 201 202 197 198 198 198 197 199 198 199 199 199 197 195 192 192 195 197 197 199 200 201 203 205 205 203 203 203 200 200 196 197 196 195 199 200 202 203 202 202 200 198 197 194 194 192 190 194 198 201 198 200 192 198 206 199